Simultaneous Nadir Overpasses (SNOs) Predictions

Prediction of SNOs between LANDSAT-8 and METOP-B Satellite Orbit:

Table of predicted SNOs for the next 14.0 days since TLE Epoch: 12/22/2015
Index Date (LANDSAT-8) Time (LANDSAT-8) Lat,Lon (LANDSAT-8) SZA (LANDSAT-8 ) Date (METOP-B) Time (METOP-B) Lat,Lon (METOP-B) SZA (METOP-B ) Distance(km) Time Diff (sec)
1 12/24/2015 10:30:44 -81.19,-116.79 73.38 12/24/2015 10:30:10 -81.19,-116.60 73.38 3.13 34
2 12/24/2015 11:20:10 81.20, 50.95 106.64 12/24/2015 11:20:50 81.19, 50.86 106.64 1.54 40
3 12/27/2015 06:04:59 -81.18, -50.46 73.51 12/27/2015 06:04:32 -81.18, -50.49 73.53 0.60 27
4 12/27/2015 06:54:24 81.21, 117.62 106.55 12/27/2015 06:55:10 81.21, 117.71 106.58 1.58 46
5 12/30/2015 01:39:13 -81.19, 16.11 73.67 12/30/2015 01:38:53 -81.18, 15.96 73.70 2.80 20
6 12/30/2015 02:28:39 81.19,-176.20 106.34 12/30/2015 02:29:32 81.20,-176.24 106.36 0.71 53
7 01/01/2016 21:13:26 -81.19, 82.55 73.90 01/01/2016 21:13:12 -81.19, 82.74 73.89 3.18 14
8 01/01/2016 22:02:52 81.19,-109.79 106.10 01/01/2016 22:03:52 81.20,-109.86 106.12 1.27 60
9 01/04/2016 16:47:40 -81.18, 148.87 74.22 01/04/2016 16:47:34 -81.18, 148.71 74.23 2.62 6




NCC Satellite Simultaneous Nadir Overpasses (SNOs) Prediction Service
